Powrót do katalogu

STARLINK-11622

AktywnyŁącznośćVLEO
NORAD 63187·PAYLOAD·🇺🇸 United States

Wystrzelony Mar 13, 2025 z Cape Canaveral Space Force Station

Loading…

Następne Przeloty (najbliższe 24 godziny)

TLE

ŚwieżeSource: CelesTrak SupGP

Epoka: Sep 15, 2026, 03:28 UTC

1 63187C 25048E   26258.14493056 -.00065085  00000+0 -50524-3 0  2581
2 63187  43.0006 258.3074 0001476 258.7375  88.2738 15.70884057    16

Śledź STARLINK-11622 w czasie rzeczywistym z AllMySat

Download on the App Store